Time,TemperatureF,DewpointF,PressureIn,WindDirection,WindDirectionDegrees,WindSpeedMPH,WindSpeedGustMPH,Humidity,HourlyPrecipIn,Conditions,Clouds,dailyrainin,SoftwareType,DateUTC
2013-07-13 00:01:00,79.3,75.9,29.52,North,349,0.0,0.0,89,0.00,,,0.00,VWS V14.01,2013-07-13 04:01:00,
2013-07-13 00:02:00,79.3,75.9,29.51,North,349,0.0,0.0,89,0.00,,,0.00,VWS V14.01,2013-07-13 04:02:00,
2013-07-13 00:05:00,79.3,75.8,29.51,North,349,0.0,0.0,89,0.00,,,0.00,VWS V14.01,2013-07-13 04:05:00,
2013-07-13 00:07:00,79.2,75.8,29.52,North,349,0.0,0.0,89,0.00,,,0.00,VWS V14.01,2013-07-13 04:07:00,
2013-07-13 00:10:00,79.2,75.8,29.52,North,349,0.0,0.0,89,0.00,,,0.00,VWS V14.01,2013-07-13 04:10:00,
2013-07-13 00:12:00,79.1,75.7,29.51,North,349,0.0,0.0,89,0.00,,,0.00,VWS V14.01,2013-07-13 04:12:00,
2013-07-13 00:15:00,79.3,75.9,29.51,North,349,0.0,0.0,90,0.00,,,0.00,VWS V14.01,2013-07-13 04:15:00,
2013-07-13 00:17:00,79.1,75.8,29.51,North,349,0.0,0.0,90,0.00,,,0.00,VWS V14.01,2013-07-13 04:17:00,
2013-07-13 00:20:00,79.1,75.7,29.52,North,349,0.0,0.0,89,0.00,,,0.00,VWS V14.01,2013-07-13 04:20:00,
2013-07-13 00:22:00,79.1,75.7,29.51,North,349,0.0,0.0,89,0.00,,,0.00,VWS V14.01,2013-07-13 04:22:00,
2013-07-13 00:25:00,79.2,75.8,29.51,North,349,0.0,0.0,90,0.00,,,0.00,VWS V14.01,2013-07-13 04:25:00,
2013-07-13 00:27:00,79.0,75.7,29.51,North,349,0.0,0.0,90,0.00,,,0.00,VWS V14.01,2013-07-13 04:27:00,
2013-07-13 00:30:00,79.1,75.8,29.51,North,349,0.0,0.0,90,0.00,,,0.00,VWS V14.01,2013-07-13 04:30:00,
2013-07-13 00:32:00,79.0,75.7,29.51,North,349,0.0,0.0,90,0.00,,,0.00,VWS V14.01,2013-07-13 04:32:00,
2013-07-13 00:35:00,79.0,75.8,29.51,North,349,0.0,0.0,90,0.00,,,0.00,VWS V14.01,2013-07-13 04:35:00,
2013-07-13 00:37:00,79.0,75.8,29.51,North,349,0.0,0.0,90,0.00,,,0.00,VWS V14.01,2013-07-13 04:37:00,
2013-07-13 00:40:00,79.0,75.8,29.51,North,349,0.0,0.0,90,0.00,,,0.00,VWS V14.01,2013-07-13 04:40:00,
2013-07-13 00:42:00,78.8,75.6,29.51,North,349,0.0,0.0,90,0.00,,,0.00,VWS V14.01,2013-07-13 04:42:00,
2013-07-13 00:47:00,78.7,75.6,29.50,North,349,0.0,0.0,90,0.00,,,0.00,VWS V14.01,2013-07-13 04:47:00,
2013-07-13 00:50:00,78.7,75.6,29.50,North,349,0.0,0.0,90,0.00,,,0.00,VWS V14.01,2013-07-13 04:50:00,
2013-07-13 00:51:00,78.4,75.3,29.50,North,349,0.0,0.0,90,0.00,,,0.00,VWS V14.01,2013-07-13 04:51:00,
2013-07-13 00:55:00,78.3,75.2,29.50,North,349,0.0,0.0,90,0.00,,,0.00,VWS V14.01,2013-07-13 04:55:00,
2013-07-13 00:56:00,78.4,75.3,29.50,North,349,0.0,0.0,90,0.00,,,0.00,VWS V14.01,2013-07-13 04:56:00,
2013-07-13 01:00:00,78.3,75.2,29.50,North,349,0.0,0.0,90,0.00,,,0.00,VWS V14.01,2013-07-13 05:00:00,
2013-07-13 01:01:00,78.3,75.3,29.50,North,349,0.0,0.0,90,0.00,,,0.00,VWS V14.01,2013-07-13 05:01:00,
2013-07-13 01:05:00,78.3,75.3,29.50,North,349,0.0,0.0,90,0.00,,,0.00,VWS V14.01,2013-07-13 05:05:00,
2013-07-13 01:06:00,78.3,75.2,29.50,North,349,0.0,0.0,90,0.00,,,0.00,VWS V14.01,2013-07-13 05:06:00,
2013-07-13 01:10:00,78.3,75.3,29.50,North,349,0.0,0.0,90,0.00,,,0.00,VWS V14.01,2013-07-13 05:10:00,
2013-07-13 01:11:00,78.2,75.2,29.50,North,349,0.0,0.0,90,0.00,,,0.00,VWS V14.01,2013-07-13 05:11:00,
2013-07-13 01:15:00,78.2,75.2,29.50,North,349,0.0,0.0,90,0.00,,,0.00,VWS V14.01,2013-07-13 05:15:00,
2013-07-13 01:16:00,78.2,75.2,29.50,North,349,0.0,0.0,90,0.00,,,0.00,VWS V14.01,2013-07-13 05:16:00,
2013-07-13 01:20:00,78.2,75.2,29.50,North,349,0.0,0.0,90,0.00,,,0.00,VWS V14.01,2013-07-13 05:20:00,
2013-07-13 01:21:00,78.2,75.2,29.50,North,349,0.0,0.0,90,0.00,,,0.00,VWS V14.01,2013-07-13 05:21:00,
2013-07-13 01:25:00,78.1,75.1,29.50,North,349,0.0,0.0,90,0.00,,,0.00,VWS V14.01,2013-07-13 05:25:00,
2013-07-13 01:26:00,78.1,75.1,29.50,North,349,0.0,0.0,91,0.00,,,0.00,VWS V14.01,2013-07-13 05:26:00,
2013-07-13 01:31:00,78.0,75.0,29.49,North,349,0.0,0.0,91,0.00,,,0.00,VWS V14.01,2013-07-13 05:31:00,
2013-07-13 01:36:00,77.9,75.0,29.49,North,349,0.0,0.0,91,0.00,,,0.00,VWS V14.01,2013-07-13 05:36:00,
2013-07-13 01:40:00,77.8,75.0,29.49,North,349,0.0,0.0,91,0.00,,,0.00,VWS V14.01,2013-07-13 05:40:00,
2013-07-13 01:41:00,77.9,75.1,29.49,North,349,0.0,0.0,91,0.00,,,0.00,VWS V14.01,2013-07-13 05:41:00,
2013-07-13 01:45:00,77.8,75.0,29.49,North,349,0.0,0.0,91,0.00,,,0.00,VWS V14.01,2013-07-13 05:45:00,
2013-07-13 01:46:00,77.9,75.1,29.49,North,349,0.0,0.0,91,0.00,,,0.00,VWS V14.01,2013-07-13 05:46:00,
2013-07-13 01:51:00,77.8,75.0,29.49,North,349,0.0,0.0,91,0.00,,,0.00,VWS V14.01,2013-07-13 05:51:00,
2013-07-13 01:55:00,77.8,75.0,29.49,North,349,0.0,0.0,91,0.00,,,0.00,VWS V14.01,2013-07-13 05:55:00,
2013-07-13 01:56:00,77.9,75.1,29.48,North,349,0.0,0.0,91,0.00,,,0.00,VWS V14.01,2013-07-13 05:56:00,
2013-07-13 02:00:00,77.8,75.0,29.49,North,349,0.0,0.0,91,0.00,,,0.00,VWS V14.01,2013-07-13 06:00:00,
2013-07-13 02:01:00,77.7,74.9,29.49,North,349,0.0,0.0,91,0.00,,,0.00,VWS V14.01,2013-07-13 06:01:00,
2013-07-13 02:05:00,77.8,75.0,29.48,North,349,0.0,0.0,91,0.00,,,0.00,VWS V14.01,2013-07-13 06:05:00,
2013-07-13 02:06:00,77.8,75.0,29.48,North,349,0.0,0.0,91,0.00,,,0.00,VWS V14.01,2013-07-13 06:06:00,
2013-07-13 02:10:00,77.9,75.1,29.48,North,349,0.0,0.0,91,0.00,,,0.00,VWS V14.01,2013-07-13 06:10:00,
2013-07-13 02:11:00,77.8,75.1,29.48,North,349,0.0,0.0,91,0.00,,,0.00,VWS V14.01,2013-07-13 06:11:00,
2013-07-13 02:16:00,77.8,75.1,29.48,North,349,0.0,0.0,91,0.00,,,0.00,VWS V14.01,2013-07-13 06:16:00,
2013-07-13 02:21:00,77.9,75.2,29.48,North,349,0.0,0.0,91,0.00,,,0.00,VWS V14.01,2013-07-13 06:21:00,
2013-07-13 02:25:00,77.7,75.0,29.48,North,349,0.0,0.0,91,0.00,,,0.00,VWS V14.01,2013-07-13 06:25:00,
2013-07-13 02:26:00,77.8,75.1,29.48,North,349,0.0,0.0,91,0.00,,,0.00,VWS V14.01,2013-07-13 06:26:00,
2013-07-13 02:30:00,77.8,75.1,29.48,North,349,0.0,0.0,91,0.00,,,0.00,VWS V14.01,2013-07-13 06:30:00,
2013-07-13 02:31:00,77.7,75.0,29.48,North,349,0.0,0.0,91,0.00,,,0.00,VWS V14.01,2013-07-13 06:31:00,
2013-07-13 02:35:00,77.8,75.1,29.48,North,349,0.0,0.0,92,0.00,,,0.00,VWS V14.01,2013-07-13 06:35:00,
2013-07-13 02:36:00,77.8,75.1,29.48,North,349,0.0,0.0,92,0.00,,,0.00,VWS V14.01,2013-07-13 06:36:00,
2013-07-13 02:40:00,77.7,75.1,29.48,North,349,0.0,0.0,92,0.00,,,0.00,VWS V14.01,2013-07-13 06:40:00,
2013-07-13 02:41:00,77.7,75.0,29.48,North,349,0.0,0.0,92,0.00,,,0.00,VWS V14.01,2013-07-13 06:41:00,
2013-07-13 02:45:00,77.8,75.2,29.48,North,349,0.0,0.0,92,0.00,,,0.00,VWS V14.01,2013-07-13 06:45:00,
2013-07-13 02:46:00,77.7,75.1,29.48,North,349,0.0,0.0,92,0.00,,,0.00,VWS V14.01,2013-07-13 06:46:00,
2013-07-13 02:51:00,77.7,75.0,29.48,North,349,0.0,0.0,92,0.00,,,0.00,VWS V14.01,2013-07-13 06:51:00,
2013-07-13 02:55:00,77.5,74.9,29.48,North,349,0.0,0.0,92,0.00,,,0.00,VWS V14.01,2013-07-13 06:55:00,
2013-07-13 02:56:00,77.7,75.1,29.48,North,349,0.0,0.0,92,0.00,,,0.00,VWS V14.01,2013-07-13 06:56:00,
2013-07-13 03:00:00,77.7,75.1,29.48,North,349,0.0,0.0,92,0.00,,,0.00,VWS V14.01,2013-07-13 07:00:00,
2013-07-13 03:01:00,77.7,75.1,29.48,North,349,0.0,0.0,92,0.00,,,0.00,VWS V14.01,2013-07-13 07:01:00,
2013-07-13 03:05:00,77.7,75.1,29.48,North,349,0.0,0.0,92,0.00,,,0.00,VWS V14.01,2013-07-13 07:05:00,
2013-07-13 03:06:00,77.7,75.1,29.48,North,349,0.0,0.0,92,0.00,,,0.00,VWS V14.01,2013-07-13 07:06:00,
2013-07-13 03:10:00,77.7,75.1,29.48,North,349,0.0,0.0,92,0.00,,,0.00,VWS V14.01,2013-07-13 07:10:00,
2013-07-13 03:11:00,77.5,74.9,29.48,North,349,0.0,0.0,92,0.00,,,0.00,VWS V14.01,2013-07-13 07:11:00,
2013-07-13 03:15:00,77.7,75.1,29.48,North,349,0.0,0.0,92,0.00,,,0.00,VWS V14.01,2013-07-13 07:15:00,
2013-07-13 03:16:00,77.7,75.1,29.48,North,349,0.0,0.0,92,0.00,,,0.00,VWS V14.01,2013-07-13 07:16:00,
2013-07-13 03:21:00,77.7,75.1,29.48,North,349,0.0,0.0,92,0.00,,,0.00,VWS V14.01,2013-07-13 07:21:00,
2013-07-13 03:26:00,77.7,75.1,29.48,North,349,0.0,0.0,92,0.00,,,0.00,VWS V14.01,2013-07-13 07:26:00,
2013-07-13 03:30:00,77.8,75.2,29.48,North,349,0.0,0.0,92,0.00,,,0.00,VWS V14.01,2013-07-13 07:30:00,
2013-07-13 03:31:00,77.8,75.2,29.48,North,349,0.0,0.0,92,0.00,,,0.00,VWS V14.01,2013-07-13 07:31:00,
2013-07-13 03:35:00,77.8,75.2,29.48,North,349,0.0,0.0,92,0.00,,,0.00,VWS V14.01,2013-07-13 07:35:00,
2013-07-13 03:36:00,77.7,75.1,29.48,North,349,0.0,0.0,92,0.00,,,0.00,VWS V14.01,2013-07-13 07:36:00,
2013-07-13 03:40:00,77.9,75.4,29.48,North,349,0.0,0.0,92,0.00,,,0.00,VWS V14.01,2013-07-13 07:40:00,
2013-07-13 03:41:00,77.7,75.2,29.48,North,349,0.0,0.0,92,0.00,,,0.00,VWS V14.01,2013-07-13 07:41:00,
2013-07-13 03:45:00,77.8,75.3,29.48,North,349,0.0,0.0,92,0.00,,,0.00,VWS V14.01,2013-07-13 07:45:00,
2013-07-13 03:46:00,77.9,75.4,29.48,North,349,0.0,0.0,92,0.00,,,0.00,VWS V14.01,2013-07-13 07:46:00,
2013-07-13 03:50:00,77.8,75.3,29.48,North,349,0.0,0.0,92,0.00,,,0.00,VWS V14.01,2013-07-13 07:50:00,
2013-07-13 03:51:00,77.8,75.3,29.48,North,349,0.0,0.0,92,0.00,,,0.00,VWS V14.01,2013-07-13 07:51:00,
2013-07-13 03:55:00,77.8,75.3,29.48,North,349,0.0,0.0,92,0.00,,,0.00,VWS V14.01,2013-07-13 07:55:00,
2013-07-13 03:56:00,77.9,75.4,29.48,North,349,0.0,0.0,92,0.00,,,0.00,VWS V14.01,2013-07-13 07:56:00,
2013-07-13 04:01:00,77.9,75.4,29.49,North,349,0.0,0.0,92,0.00,,,0.00,VWS V14.01,2013-07-13 08:01:00,
2013-07-13 04:05:00,78.0,75.5,29.49,North,349,0.0,0.0,92,0.00,,,0.00,VWS V14.01,2013-07-13 08:05:00,
2013-07-13 04:06:00,78.0,75.5,29.49,North,349,0.0,0.0,92,0.00,,,0.00,VWS V14.01,2013-07-13 08:06:00,
2013-07-13 04:10:00,78.1,75.5,29.49,North,349,0.0,0.0,92,0.00,,,0.00,VWS V14.01,2013-07-13 08:10:00,
2013-07-13 04:11:00,78.0,75.4,29.49,North,349,0.0,0.0,92,0.00,,,0.00,VWS V14.01,2013-07-13 08:11:00,
2013-07-13 04:15:00,77.9,75.3,29.49,North,349,0.0,0.0,92,0.00,,,0.00,VWS V14.01,2013-07-13 08:15:00,
2013-07-13 04:16:00,77.9,75.3,29.49,North,349,0.0,0.0,92,0.00,,,0.00,VWS V14.01,2013-07-13 08:16:00,
2013-07-13 04:21:00,77.9,75.3,29.49,North,349,0.0,0.0,92,0.00,,,0.00,VWS V14.01,2013-07-13 08:21:00,
2013-07-13 04:25:00,78.0,75.4,29.49,North,349,0.0,0.0,92,0.00,,,0.00,VWS V14.01,2013-07-13 08:25:00,
2013-07-13 04:26:00,78.0,75.4,29.49,North,349,0.0,0.0,92,0.00,,,0.00,VWS V14.01,2013-07-13 08:26:00,
2013-07-13 04:30:00,77.8,75.2,29.49,North,349,0.0,0.0,92,0.00,,,0.00,VWS V14.01,2013-07-13 08:30:00,
2013-07-13 04:31:00,77.7,75.1,29.49,North,349,0.0,0.0,92,0.00,,,0.00,VWS V14.01,2013-07-13 08:31:00,
2013-07-13 04:35:00,77.8,75.1,29.49,North,349,0.0,0.0,92,0.00,,,0.00,VWS V14.01,2013-07-13 08:35:00,
2013-07-13 04:36:00,77.8,75.1,29.49,North,349,0.0,0.0,92,0.00,,,0.00,VWS V14.01,2013-07-13 08:36:00,
2013-07-13 04:40:00,77.7,75.0,29.49,North,349,0.0,0.0,91,0.00,,,0.00,VWS V14.01,2013-07-13 08:40:00,
2013-07-13 04:41:00,77.7,75.0,29.49,North,349,0.0,0.0,92,0.00,,,0.00,VWS V14.01,2013-07-13 08:41:00,
2013-07-13 04:45:00,77.5,74.8,29.49,North,349,0.0,0.0,91,0.00,,,0.00,VWS V14.01,2013-07-13 08:45:00,
2013-07-13 04:46:00,77.7,75.0,29.49,North,349,0.0,0.0,91,0.00,,,0.00,VWS V14.01,2013-07-13 08:46:00,
2013-07-13 04:50:00,77.8,75.1,29.50,North,349,0.0,0.0,91,0.00,,,0.00,VWS V14.01,2013-07-13 08:50:00,
2013-07-13 04:51:00,77.5,74.7,29.49,North,349,0.0,0.0,91,0.00,,,0.00,VWS V14.01,2013-07-13 08:51:00,
2013-07-13 04:55:00,77.3,74.5,29.49,North,349,0.0,0.0,91,0.00,,,0.00,VWS V14.01,2013-07-13 08:55:00,
2013-07-13 04:56:00,77.4,74.6,29.50,North,349,0.0,0.0,91,0.00,,,0.00,VWS V14.01,2013-07-13 08:56:00,
2013-07-13 05:00:00,77.4,74.6,29.50,North,349,0.0,0.0,91,0.00,,,0.00,VWS V14.01,2013-07-13 09:00:00,
2013-07-13 05:01:00,77.4,74.6,29.50,North,349,0.0,0.0,91,0.00,,,0.00,VWS V14.01,2013-07-13 09:01:00,
2013-07-13 05:06:00,77.4,74.6,29.49,North,349,0.0,0.0,91,0.00,,,0.00,VWS V14.01,2013-07-13 09:06:00,
2013-07-13 05:11:00,77.3,74.4,29.49,North,349,0.0,0.0,91,0.00,,,0.00,VWS V14.01,2013-07-13 09:11:00,
2013-07-13 05:15:00,77.4,74.5,29.49,North,349,0.0,0.0,91,0.00,,,0.00,VWS V14.01,2013-07-13 09:15:00,
2013-07-13 05:16:00,77.4,74.5,29.49,North,349,0.0,0.0,91,0.00,,,0.00,VWS V14.01,2013-07-13 09:16:00,
2013-07-13 05:20:00,77.3,74.4,29.49,North,349,0.0,0.0,91,0.00,,,0.00,VWS V14.01,2013-07-13 09:20:00,
2013-07-13 05:21:00,77.3,74.4,29.49,North,349,0.0,0.0,91,0.00,,,0.00,VWS V14.01,2013-07-13 09:21:00,
2013-07-13 05:25:00,77.2,74.3,29.49,North,349,0.0,0.0,91,0.00,,,0.00,VWS V14.01,2013-07-13 09:25:00,
2013-07-13 05:26:00,77.1,74.2,29.49,North,349,0.0,0.0,91,0.00,,,0.00,VWS V14.01,2013-07-13 09:26:00,
2013-07-13 05:31:00,77.2,74.4,29.49,North,349,0.0,0.0,91,0.00,,,0.00,VWS V14.01,2013-07-13 09:31:00,
2013-07-13 05:35:00,77.0,74.2,29.49,North,349,0.0,0.0,91,0.00,,,0.00,VWS V14.01,2013-07-13 09:35:00,
2013-07-13 05:36:00,77.0,74.2,29.49,North,349,0.0,0.0,91,0.00,,,0.00,VWS V14.01,2013-07-13 09:36:00,
2013-07-13 05:40:00,77.0,74.2,29.49,North,349,0.0,0.0,91,0.00,,,0.00,VWS V14.01,2013-07-13 09:40:00,
2013-07-13 05:41:00,76.9,74.1,29.49,North,349,0.0,0.0,91,0.00,,,0.00,VWS V14.01,2013-07-13 09:41:00,
2013-07-13 05:46:00,76.9,74.1,29.49,North,349,0.0,0.0,91,0.00,,,0.00,VWS V14.01,2013-07-13 09:46:00,
2013-07-13 05:50:00,76.8,74.0,29.49,North,349,0.0,0.0,91,0.00,,,0.00,VWS V14.01,2013-07-13 09:50:00,
2013-07-13 05:55:00,76.6,73.9,29.49,North,349,0.0,0.0,91,0.00,,,0.00,VWS V14.01,2013-07-13 09:55:00,
2013-07-13 06:00:00,76.4,73.7,29.50,North,349,0.0,0.0,91,0.00,,,0.00,VWS V14.01,2013-07-13 10:00:00,
2013-07-13 06:05:00,76.3,73.6,29.50,North,349,0.0,0.0,91,0.00,,,0.00,VWS V14.01,2013-07-13 10:05:00,
2013-07-13 06:10:00,76.2,73.6,29.50,North,349,0.0,0.0,92,0.00,,,0.00,VWS V14.01,2013-07-13 10:10:00,
2013-07-13 06:15:00,76.1,73.4,29.49,North,349,0.0,0.0,92,0.00,,,0.00,VWS V14.01,2013-07-13 10:15:00,
2013-07-13 06:20:00,76.1,73.4,29.49,North,349,0.0,0.0,92,0.00,,,0.00,VWS V14.01,2013-07-13 10:20:00,
2013-07-13 06:25:00,76.2,73.6,29.49,North,349,0.0,0.0,92,0.00,,,0.00,VWS V14.01,2013-07-13 10:25:00,
2013-07-13 06:30:00,76.1,73.4,29.49,North,349,0.0,0.0,92,0.00,,,0.00,VWS V14.01,2013-07-13 10:30:00,
2013-07-13 06:35:00,76.1,73.5,29.49,North,349,0.0,0.0,92,0.00,,,0.00,VWS V14.01,2013-07-13 10:35:00,
2013-07-13 06:40:00,75.9,73.3,29.49,North,349,0.0,0.0,92,0.00,,,0.00,VWS V14.01,2013-07-13 10:40:00,
2013-07-13 06:45:00,76.0,73.4,29.49,North,349,0.0,0.0,92,0.00,,,0.00,VWS V14.01,2013-07-13 10:45:00,
2013-07-13 06:50:00,76.0,73.4,29.48,North,349,0.0,0.0,92,0.00,,,0.00,VWS V14.01,2013-07-13 10:50:00,
2013-07-13 06:55:00,75.7,73.2,29.49,North,349,0.0,0.0,92,0.00,,,0.00,VWS V14.01,2013-07-13 10:55:00,
2013-07-13 07:00:00,75.8,73.2,29.49,North,349,0.0,0.0,92,0.00,,,0.00,VWS V14.01,2013-07-13 11:00:00,
2013-07-13 07:05:00,75.8,73.3,29.49,North,349,0.0,0.0,92,0.00,,,0.00,VWS V14.01,2013-07-13 11:05:00,
2013-07-13 07:10:00,75.8,73.3,29.48,North,349,0.0,0.0,92,0.00,,,0.00,VWS V14.01,2013-07-13 11:10:00,
2013-07-13 07:15:00,75.8,73.3,29.49,North,349,0.0,0.0,92,0.00,,,0.00,VWS V14.01,2013-07-13 11:15:00,
2013-07-13 07:20:00,75.7,73.2,29.49,North,349,0.0,0.0,92,0.00,,,0.00,VWS V14.01,2013-07-13 11:20:00,
2013-07-13 07:25:00,75.7,73.3,29.49,North,349,0.0,0.0,92,0.00,,,0.00,VWS V14.01,2013-07-13 11:25:00,
2013-07-13 07:30:00,76.0,73.6,29.50,North,349,0.0,0.0,92,0.00,,,0.00,VWS V14.01,2013-07-13 11:30:00,
2013-07-13 07:35:00,75.9,73.5,29.50,North,349,0.0,0.0,92,0.00,,,0.00,VWS V14.01,2013-07-13 11:35:00,
2013-07-13 07:40:00,76.1,73.8,29.49,North,349,0.0,0.0,92,0.00,,,0.00,VWS V14.01,2013-07-13 11:40:00,
2013-07-13 07:45:00,76.3,74.0,29.49,North,349,0.0,0.0,93,0.00,,,0.00,VWS V14.01,2013-07-13 11:45:00,
2013-07-13 07:50:00,76.6,74.3,29.49,North,349,0.0,0.0,93,0.00,,,0.00,VWS V14.01,2013-07-13 11:50:00,
2013-07-13 07:55:00,76.8,74.5,29.50,North,349,0.0,0.0,92,0.00,,,0.00,VWS V14.01,2013-07-13 11:55:00,
2013-07-13 08:00:00,77.0,74.6,29.50,North,349,0.0,0.0,92,0.00,,,0.00,VWS V14.01,2013-07-13 12:00:00,
2013-07-13 08:05:00,77.0,74.5,29.50,North,349,0.0,0.0,92,0.00,,,0.00,VWS V14.01,2013-07-13 12:05:00,
2013-07-13 08:10:00,77.4,74.8,29.50,North,349,0.0,0.0,92,0.00,,,0.00,VWS V14.01,2013-07-13 12:10:00,
2013-07-13 08:15:00,77.4,74.7,29.50,North,349,0.0,0.0,92,0.00,,,0.00,VWS V14.01,2013-07-13 12:15:00,
2013-07-13 08:20:00,77.7,74.9,29.50,North,349,0.0,0.0,91,0.00,,,0.00,VWS V14.01,2013-07-13 12:20:00,
2013-07-13 08:25:00,77.9,75.1,29.51,North,349,0.0,0.0,91,0.00,,,0.00,VWS V14.01,2013-07-13 12:25:00,
2013-07-13 08:30:00,78.1,75.2,29.51,North,349,0.0,0.0,91,0.00,,,0.00,VWS V14.01,2013-07-13 12:30:00,
2013-07-13 08:35:00,78.3,75.2,29.51,North,349,0.0,0.0,90,0.00,,,0.00,VWS V14.01,2013-07-13 12:35:00,
2013-07-13 08:40:00,78.7,75.6,29.51,North,349,0.0,0.0,90,0.00,,,0.00,VWS V14.01,2013-07-13 12:40:00,
2013-07-13 08:45:00,78.8,75.5,29.52,North,349,0.0,0.0,90,0.00,,,0.00,VWS V14.01,2013-07-13 12:45:00,
2013-07-13 08:50:00,79.0,75.6,29.52,North,349,0.0,0.0,89,0.00,,,0.00,VWS V14.01,2013-07-13 12:50:00,
2013-07-13 08:55:00,79.1,75.4,29.52,North,349,0.0,0.0,89,0.00,,,0.00,VWS V14.01,2013-07-13 12:55:00,
2013-07-13 09:00:00,79.4,75.3,29.52,North,349,0.0,0.0,87,0.00,,,0.00,VWS V14.01,2013-07-13 13:00:00,
2013-07-13 09:05:00,79.8,75.7,29.52,North,349,0.0,0.0,87,0.00,,,0.00,VWS V14.01,2013-07-13 13:05:00,
2013-07-13 09:10:00,79.9,75.9,29.53,North,349,0.0,0.0,88,0.00,,,0.00,VWS V14.01,2013-07-13 13:10:00,
2013-07-13 09:15:00,80.2,75.9,29.53,North,349,0.0,0.0,87,0.00,,,0.00,VWS V14.01,2013-07-13 13:15:00,
2013-07-13 09:20:00,80.5,75.9,29.53,North,349,0.0,0.0,86,0.00,,,0.00,VWS V14.01,2013-07-13 13:20:00,
2013-07-13 09:25:00,80.5,75.6,29.53,North,349,0.0,0.0,85,0.00,,,0.00,VWS V14.01,2013-07-13 13:25:00,
2013-07-13 09:30:00,81.1,76.0,29.54,North,349,0.0,0.0,84,0.00,,,0.00,VWS V14.01,2013-07-13 13:30:00,
2013-07-13 09:35:00,81.4,75.7,29.54,North,349,0.0,0.0,83,0.00,,,0.00,VWS V14.01,2013-07-13 13:35:00,
2013-07-13 09:40:00,81.6,75.6,29.54,North,349,0.0,0.0,82,0.00,,,0.00,VWS V14.01,2013-07-13 13:40:00,
2013-07-13 09:45:00,82.1,75.9,29.54,North,349,0.0,0.0,82,0.00,,,0.00,VWS V14.01,2013-07-13 13:45:00,
2013-07-13 09:50:00,82.5,76.3,29.55,North,349,0.0,0.0,82,0.00,,,0.00,VWS V14.01,2013-07-13 13:50:00,
2013-07-13 09:55:00,82.7,76.1,29.55,North,349,0.0,0.0,81,0.00,,,0.00,VWS V14.01,2013-07-13 13:55:00,
2013-07-13 10:00:00,83.4,76.4,29.55,North,349,0.0,0.0,80,0.00,,,0.00,VWS V14.01,2013-07-13 14:00:00,
2013-07-13 10:05:00,83.4,76.1,29.55,North,349,0.0,0.0,79,0.00,,,0.00,VWS V14.01,2013-07-13 14:05:00,
2013-07-13 10:10:00,83.8,76.3,29.55,North,349,0.0,0.0,78,0.00,,,0.00,VWS V14.01,2013-07-13 14:10:00,
2013-07-13 10:15:00,84.0,75.9,29.55,North,349,0.0,0.0,77,0.00,,,0.00,VWS V14.01,2013-07-13 14:15:00,
2013-07-13 10:20:00,84.3,76.3,29.55,North,349,0.0,0.0,77,0.00,,,0.00,VWS V14.01,2013-07-13 14:20:00,
2013-07-13 10:25:00,84.5,76.3,29.55,North,349,0.0,0.0,76,0.00,,,0.00,VWS V14.01,2013-07-13 14:25:00,
2013-07-13 10:30:00,84.7,75.8,29.55,North,349,0.0,0.0,75,0.00,,,0.00,VWS V14.01,2013-07-13 14:30:00,
2013-07-13 10:35:00,84.9,75.8,29.55,North,349,0.0,0.0,74,0.00,,,0.00,VWS V14.01,2013-07-13 14:35:00,
2013-07-13 10:40:00,85.1,76.1,29.55,North,349,0.0,0.0,75,0.00,,,0.00,VWS V14.01,2013-07-13 14:40:00,
2013-07-13 10:45:00,85.4,76.2,29.55,North,349,0.0,0.0,74,0.00,,,0.00,VWS V14.01,2013-07-13 14:45:00,
2013-07-13 10:50:00,85.6,76.0,29.55,North,349,0.0,0.0,73,0.00,,,0.00,VWS V14.01,2013-07-13 14:50:00,
2013-07-13 10:55:00,85.5,76.0,29.55,North,349,0.0,0.0,73,0.00,,,0.00,VWS V14.01,2013-07-13 14:55:00,
2013-07-13 11:00:00,85.6,75.9,29.55,North,349,0.0,0.0,73,0.00,,,0.00,VWS V14.01,2013-07-13 15:00:00,
2013-07-13 11:04:00,86.0,76.4,29.55,North,349,0.0,0.0,73,0.00,,,0.00,VWS V14.01,2013-07-13 15:04:00,
2013-07-13 11:05:00,86.0,76.2,29.55,North,349,0.0,0.0,73,0.00,,,0.00,VWS V14.01,2013-07-13 15:05:00,
2013-07-13 11:09:00,86.1,76.3,29.55,North,349,0.0,0.0,73,0.00,,,0.00,VWS V14.01,2013-07-13 15:09:00,
2013-07-13 11:10:00,86.2,76.4,29.55,North,349,0.0,0.0,73,0.00,,,0.00,VWS V14.01,2013-07-13 15:10:00,
2013-07-13 11:14:00,86.5,76.1,29.55,North,349,0.0,0.0,71,0.00,,,0.00,VWS V14.01,2013-07-13 15:14:00,
2013-07-13 11:15:00,86.5,76.2,29.55,North,349,0.0,0.0,72,0.00,,,0.00,VWS V14.01,2013-07-13 15:15:00,
2013-07-13 11:19:00,86.4,75.8,29.55,North,349,0.0,0.0,71,0.00,,,0.00,VWS V14.01,2013-07-13 15:19:00,
2013-07-13 11:20:00,86.6,76.3,29.55,North,349,0.0,0.0,72,0.00,,,0.00,VWS V14.01,2013-07-13 15:20:00,
2013-07-13 11:24:00,86.5,75.4,29.55,North,349,0.0,0.0,70,0.00,,,0.00,VWS V14.01,2013-07-13 15:24:00,
2013-07-13 11:25:00,86.6,75.7,29.55,North,349,0.0,0.0,70,0.00,,,0.00,VWS V14.01,2013-07-13 15:25:00,
2013-07-13 11:29:00,86.8,75.8,29.55,North,349,0.0,0.0,70,0.00,,,0.00,VWS V14.01,2013-07-13 15:29:00,
2013-07-13 11:30:00,87.0,76.1,29.56,North,349,0.0,0.0,70,0.00,,,0.00,VWS V14.01,2013-07-13 15:30:00,
2013-07-13 11:34:00,87.1,75.9,29.55,North,349,0.0,0.0,70,0.00,,,0.00,VWS V14.01,2013-07-13 15:34:00,
2013-07-13 11:35:00,87.3,76.3,29.55,North,349,0.0,0.0,70,0.00,,,0.00,VWS V14.01,2013-07-13 15:35:00,
2013-07-13 11:39:00,87.4,76.2,29.55,North,349,0.0,0.0,70,0.00,,,0.00,VWS V14.01,2013-07-13 15:39:00,
2013-07-13 11:40:00,87.3,75.9,29.55,North,349,0.0,0.0,69,0.00,,,0.00,VWS V14.01,2013-07-13 15:40:00,
2013-07-13 11:44:00,87.5,76.2,29.55,North,349,0.0,0.0,69,0.00,,,0.00,VWS V14.01,2013-07-13 15:44:00,
2013-07-13 11:45:00,87.5,76.4,29.55,North,349,0.0,0.0,70,0.00,,,0.00,VWS V14.01,2013-07-13 15:45:00,
2013-07-13 11:49:00,87.7,75.9,29.55,North,349,0.0,0.0,68,0.00,,,0.00,VWS V14.01,2013-07-13 15:49:00,
2013-07-13 11:54:00,87.7,75.5,29.55,North,349,0.0,0.0,67,0.00,,,0.00,VWS V14.01,2013-07-13 15:54:00,
2013-07-13 11:55:00,87.7,75.7,29.55,North,349,0.0,0.0,68,0.00,,,0.00,VWS V14.01,2013-07-13 15:55:00,
2013-07-13 11:59:00,87.6,75.7,29.55,North,349,0.0,0.0,68,0.00,,,0.00,VWS V14.01,2013-07-13 15:59:00,
2013-07-13 12:00:00,87.3,75.6,29.55,North,349,0.0,0.0,68,0.00,,,0.00,VWS V14.01,2013-07-13 16:00:00,
2013-07-13 12:04:00,87.2,75.5,29.55,North,349,0.0,0.0,68,0.00,,,0.00,VWS V14.01,2013-07-13 16:04:00,
2013-07-13 12:05:00,87.4,76.0,29.55,North,349,0.0,0.0,69,0.00,,,0.00,VWS V14.01,2013-07-13 16:05:00,
2013-07-13 12:09:00,88.0,75.9,29.55,North,349,0.0,0.0,68,0.00,,,0.00,VWS V14.01,2013-07-13 16:09:00,
2013-07-13 12:10:00,88.0,75.7,29.55,North,349,0.0,0.0,67,0.00,,,0.00,VWS V14.01,2013-07-13 16:10:00,
2013-07-13 12:14:00,88.4,75.7,29.55,North,349,0.0,0.0,66,0.00,,,0.00,VWS V14.01,2013-07-13 16:14:00,
2013-07-13 12:15:00,88.7,76.4,29.55,North,349,0.0,0.0,67,0.00,,,0.00,VWS V14.01,2013-07-13 16:15:00,
2013-07-13 12:19:00,89.2,75.6,29.55,North,349,0.0,0.0,64,0.00,,,0.00,VWS V14.01,2013-07-13 16:19:00,
2013-07-13 12:20:00,89.4,75.3,29.55,North,349,0.0,0.0,63,0.00,,,0.00,VWS V14.01,2013-07-13 16:20:00,
2013-07-13 12:24:00,90.0,75.6,29.55,North,349,0.0,0.0,63,0.00,,,0.00,VWS V14.01,2013-07-13 16:24:00,
2013-07-13 12:25:00,90.0,75.5,29.55,North,349,0.0,0.0,62,0.00,,,0.00,VWS V14.01,2013-07-13 16:25:00,
2013-07-13 12:29:00,90.1,75.1,29.55,North,349,0.0,0.0,62,0.00,,,0.00,VWS V14.01,2013-07-13 16:29:00,
2013-07-13 12:34:00,90.3,75.0,29.54,North,349,0.0,0.0,61,0.00,,,0.00,VWS V14.01,2013-07-13 16:34:00,
2013-07-13 12:35:00,90.3,75.3,29.55,North,349,0.0,0.0,62,0.00,,,0.00,VWS V14.01,2013-07-13 16:35:00,
2013-07-13 12:39:00,90.5,75.5,29.54,North,349,0.0,0.0,62,0.00,,,0.00,VWS V14.01,2013-07-13 16:39:00,
2013-07-13 12:40:00,90.6,75.5,29.54,North,349,0.0,0.0,61,0.00,,,0.00,VWS V14.01,2013-07-13 16:40:00,
2013-07-13 12:44:00,90.5,74.9,29.54,North,349,0.0,0.0,60,0.00,,,0.00,VWS V14.01,2013-07-13 16:44:00,
2013-07-13 12:45:00,90.5,74.6,29.54,North,349,0.0,0.0,60,0.00,,,0.00,VWS V14.01,2013-07-13 16:45:00,
2013-07-13 12:49:00,90.5,75.6,29.54,North,349,0.0,0.0,62,0.00,,,0.00,VWS V14.01,2013-07-13 16:49:00,
2013-07-13 12:50:00,90.5,75.5,29.54,North,349,0.0,0.0,62,0.00,,,0.00,VWS V14.01,2013-07-13 16:50:00,
2013-07-13 12:54:00,91.1,75.6,29.54,North,349,0.0,0.0,61,0.00,,,0.00,VWS V14.01,2013-07-13 16:54:00,
2013-07-13 12:55:00,91.2,75.5,29.54,North,349,0.0,0.0,60,0.00,,,0.00,VWS V14.01,2013-07-13 16:55:00,
2013-07-13 12:59:00,91.2,75.2,29.54,North,349,0.0,0.0,60,0.00,,,0.00,VWS V14.01,2013-07-13 16:59:00,
2013-07-13 13:00:00,91.4,75.3,29.54,North,349,0.0,0.0,60,0.00,,,0.00,VWS V14.01,2013-07-13 17:00:00,
2013-07-13 13:04:00,91.9,75.1,29.54,North,349,0.0,0.0,58,0.00,,,0.00,VWS V14.01,2013-07-13 17:04:00,
2013-07-13 13:05:00,91.8,75.3,29.54,North,349,0.0,0.0,59,0.00,,,0.00,VWS V14.01,2013-07-13 17:05:00,
2013-07-13 13:09:00,92.1,74.8,29.54,North,349,0.0,0.0,57,0.00,,,0.00,VWS V14.01,2013-07-13 17:09:00,
2013-07-13 13:10:00,92.2,74.4,29.54,North,349,0.0,0.0,56,0.00,,,0.00,VWS V14.01,2013-07-13 17:10:00,
2013-07-13 13:14:00,92.6,74.9,29.54,North,349,0.0,0.0,57,0.00,,,0.00,VWS V14.01,2013-07-13 17:14:00,
2013-07-13 13:19:00,92.3,74.3,29.53,North,349,0.0,0.0,56,0.00,,,0.00,VWS V14.01,2013-07-13 17:19:00,
2013-07-13 13:20:00,92.4,74.5,29.53,North,349,0.0,0.0,56,0.00,,,0.00,VWS V14.01,2013-07-13 17:20:00,
2013-07-13 13:24:00,92.3,74.6,29.53,North,349,0.0,0.0,56,0.00,,,0.00,VWS V14.01,2013-07-13 17:24:00,
2013-07-13 13:29:00,93.1,74.4,29.54,North,349,0.0,0.0,55,0.00,,,0.00,VWS V14.01,2013-07-13 17:29:00,
2013-07-13 13:34:00,93.4,74.6,29.53,North,349,0.0,0.0,55,0.00,,,0.00,VWS V14.01,2013-07-13 17:34:00,
2013-07-13 13:35:00,93.3,74.5,29.53,North,349,0.0,0.0,54,0.00,,,0.00,VWS V14.01,2013-07-13 17:35:00,
2013-07-13 13:39:00,93.7,74.6,29.53,North,349,0.0,0.0,54,0.00,,,0.00,VWS V14.01,2013-07-13 17:39:00,
2013-07-13 13:44:00,94.0,74.4,29.53,North,349,0.0,0.0,53,0.00,,,0.00,VWS V14.01,2013-07-13 17:44:00,
2013-07-13 13:49:00,93.4,74.7,29.53,North,349,0.0,0.0,55,0.00,,,0.00,VWS V14.01,2013-07-13 17:49:00,
2013-07-13 13:50:00,93.8,75.4,29.53,North,349,0.0,0.0,55,0.00,,,0.00,VWS V14.01,2013-07-13 17:50:00,
2013-07-13 13:54:00,93.7,74.1,29.52,North,349,0.0,0.0,53,0.00,,,0.00,VWS V14.01,2013-07-13 17:54:00,
2013-07-13 13:59:00,94.3,74.0,29.52,North,349,0.0,0.0,52,0.00,,,0.00,VWS V14.01,2013-07-13 17:59:00,
2013-07-13 14:00:00,94.2,74.0,29.52,North,349,0.0,0.0,52,0.00,,,0.00,VWS V14.01,2013-07-13 18:00:00,
2013-07-13 14:04:00,94.0,74.1,29.52,North,349,0.0,0.0,53,0.00,,,0.00,VWS V14.01,2013-07-13 18:04:00,
2013-07-13 14:05:00,93.9,73.7,29.52,North,349,0.0,0.0,52,0.00,,,0.00,VWS V14.01,2013-07-13 18:05:00,
2013-07-13 14:09:00,93.7,74.3,29.52,North,349,0.0,0.0,54,0.00,,,0.00,VWS V14.01,2013-07-13 18:09:00,
2013-07-13 14:10:00,93.3,73.9,29.52,North,349,0.0,0.0,54,0.00,,,0.00,VWS V14.01,2013-07-13 18:10:00,
2013-07-13 14:14:00,93.7,73.9,29.52,North,349,0.0,0.0,53,0.00,,,0.00,VWS V14.01,2013-07-13 18:14:00,
2013-07-13 14:19:00,94.2,74.9,29.53,North,349,0.0,0.0,54,0.00,,,0.00,VWS V14.01,2013-07-13 18:19:00,
2013-07-13 14:20:00,94.3,75.7,29.53,North,349,0.0,0.0,55,0.00,,,0.00,VWS V14.01,2013-07-13 18:20:00,
2013-07-13 14:24:00,94.9,75.2,29.53,North,349,0.0,0.0,53,0.00,,,0.00,VWS V14.01,2013-07-13 18:24:00,
2013-07-13 14:25:00,94.3,73.8,29.53,North,349,0.0,0.0,52,0.00,,,0.00,VWS V14.01,2013-07-13 18:25:00,
2013-07-13 14:29:00,94.2,74.5,29.53,North,349,0.0,0.0,53,0.00,,,0.00,VWS V14.01,2013-07-13 18:29:00,
2013-07-13 14:30:00,94.0,74.4,29.52,North,349,0.0,0.0,53,0.00,,,0.00,VWS V14.01,2013-07-13 18:30:00,
2013-07-13 14:34:00,93.8,74.4,29.53,North,349,0.0,0.0,54,0.00,,,0.00,VWS V14.01,2013-07-13 18:34:00,
2013-07-13 14:35:00,93.3,74.2,29.52,North,349,0.0,0.0,54,0.00,,,0.00,VWS V14.01,2013-07-13 18:35:00,
2013-07-13 14:39:00,93.4,74.6,29.52,North,349,0.0,0.0,55,0.00,,,0.00,VWS V14.01,2013-07-13 18:39:00,
2013-07-13 14:40:00,93.2,74.4,29.52,North,349,0.0,0.0,54,0.00,,,0.00,VWS V14.01,2013-07-13 18:40:00,
2013-07-13 14:44:00,93.0,74.7,29.52,North,349,0.0,0.0,56,0.00,,,0.00,VWS V14.01,2013-07-13 18:44:00,
2013-07-13 14:45:00,93.1,74.8,29.52,North,349,0.0,0.0,55,0.00,,,0.00,VWS V14.01,2013-07-13 18:45:00,
2013-07-13 14:49:00,93.0,74.6,29.52,North,349,0.0,0.0,55,0.00,,,0.00,VWS V14.01,2013-07-13 18:49:00,
2013-07-13 14:50:00,93.1,75.0,29.52,North,349,0.0,0.0,56,0.00,,,0.00,VWS V14.01,2013-07-13 18:50:00,
2013-07-13 14:54:00,92.8,74.6,29.53,South,170,5.5,5.5,56,0.00,,,0.00,VWS V14.01,2013-07-13 18:54:00,
2013-07-13 14:55:00,92.3,74.8,29.52,South,184,4.2,4.2,57,0.00,,,0.00,VWS V14.01,2013-07-13 18:55:00,
2013-07-13 14:59:00,91.7,75.5,29.52,ESE,103,0.0,3.2,59,0.00,,,0.00,VWS V14.01,2013-07-13 18:59:00,
2013-07-13 15:00:00,91.2,75.4,29.52,SE,146,3.1,6.8,60,0.00,,,0.00,VWS V14.01,2013-07-13 19:00:00,
2013-07-13 15:04:00,90.8,75.8,29.52,ESE,112,0.0,3.4,62,0.00,,,0.00,VWS V14.01,2013-07-13 19:04:00,
2013-07-13 15:05:00,90.2,76.1,29.52,SE,132,0.0,8.5,64,0.00,,,0.00,VWS V14.01,2013-07-13 19:05:00,
2013-07-13 15:09:00,89.6,77.0,29.52,SE,145,0.0,0.0,66,0.01,,,0.01,VWS V14.01,2013-07-13 19:09:00,
2013-07-13 15:10:00,89.3,77.4,29.51,SE,145,0.0,0.0,68,0.02,,,0.02,VWS V14.01,2013-07-13 19:10:00,
2013-07-13 15:14:00,88.5,77.6,29.52,SE,145,0.0,2.8,70,0.02,,,0.02,VWS V14.01,2013-07-13 19:14:00,
2013-07-13 15:15:00,88.1,77.5,29.52,SE,145,0.0,0.0,71,0.02,,,0.02,VWS V14.01,2013-07-13 19:15:00,
2013-07-13 15:19:00,87.2,77.4,29.52,SE,145,0.0,0.0,73,0.02,,,0.02,VWS V14.01,2013-07-13 19:19:00,
2013-07-13 15:20:00,87.1,78.1,29.52,SE,145,0.0,0.0,75,0.02,,,0.02,VWS V14.01,2013-07-13 19:20:00,
2013-07-13 15:24:00,87.2,78.9,29.52,SE,145,0.0,0.0,77,0.02,,,0.02,VWS V14.01,2013-07-13 19:24:00,
2013-07-13 15:25:00,87.5,79.2,29.52,SE,145,0.0,0.0,76,0.02,,,0.02,VWS V14.01,2013-07-13 19:25:00,
2013-07-13 15:29:00,87.7,78.2,29.52,SE,143,0.0,4.3,74,0.02,,,0.02,VWS V14.01,2013-07-13 19:29:00,
2013-07-13 15:30:00,87.6,77.8,29.52,ESE,114,0.0,3.4,73,0.02,,,0.02,VWS V14.01,2013-07-13 19:30:00,
2013-07-13 15:34:00,87.8,78.4,29.52,ESE,114,0.0,0.0,74,0.02,,,0.02,VWS V14.01,2013-07-13 19:34:00,
2013-07-13 15:35:00,88.1,78.7,29.52,SE,138,0.0,0.0,74,0.02,,,0.02,VWS V14.01,2013-07-13 19:35:00,
2013-07-13 15:39:00,87.7,78.0,29.52,ESE,107,0.0,2.2,73,0.02,,,0.02,VWS V14.01,2013-07-13 19:39:00,
2013-07-13 15:44:00,87.5,78.2,29.52,ESE,107,0.0,0.0,74,0.02,,,0.02,VWS V14.01,2013-07-13 19:44:00,
2013-07-13 15:45:00,87.3,78.0,29.52,ESE,107,0.0,0.0,74,0.02,,,0.02,VWS V14.01,2013-07-13 19:45:00,
2013-07-13 15:49:00,86.9,77.9,29.52,ESE,107,0.0,0.0,75,0.02,,,0.02,VWS V14.01,2013-07-13 19:49:00,
2013-07-13 15:50:00,86.7,78.0,29.53,East,97,0.0,3.3,75,0.02,,,0.02,VWS V14.01,2013-07-13 19:50:00,
2013-07-13 15:54:00,86.8,78.3,29.53,East,97,0.0,0.0,76,0.02,,,0.02,VWS V14.01,2013-07-13 19:54:00,
2013-07-13 15:55:00,86.9,78.5,29.53,ESE,121,0.0,3.3,76,0.02,,,0.02,VWS V14.01,2013-07-13 19:55:00,
2013-07-13 15:59:00,87.0,78.6,29.53,SE,134,0.0,3.1,76,0.02,,,0.02,VWS V14.01,2013-07-13 19:59:00,
2013-07-13 16:04:00,87.0,77.6,29.53,East,94,0.0,0.0,74,0.02,,,0.02,VWS V14.01,2013-07-13 20:04:00,
2013-07-13 16:05:00,86.6,77.2,29.53,SE,125,0.0,3.2,74,0.02,,,0.02,VWS V14.01,2013-07-13 20:05:00,
2013-07-13 16:09:00,86.3,76.8,29.53,SSE,150,3.4,3.4,74,0.02,,,0.02,VWS V14.01,2013-07-13 20:09:00,
2013-07-13 16:14:00,85.9,76.3,29.54,ESE,105,0.0,0.0,73,0.02,,,0.02,VWS V14.01,2013-07-13 20:14:00,
2013-07-13 16:15:00,85.8,76.4,29.54,ESE,111,0.0,0.0,74,0.02,,,0.02,VWS V14.01,2013-07-13 20:15:00,
2013-07-13 16:19:00,85.5,75.7,29.54,ESE,111,0.0,0.0,73,0.00,,,0.02,VWS V14.01,2013-07-13 20:19:00,
2013-07-13 16:24:00,85.3,75.0,29.55,South,169,3.4,5.1,71,0.00,,,0.02,VWS V14.01,2013-07-13 20:24:00,
2013-07-13 16:25:00,85.2,74.9,29.55,SSE,160,0.0,4.4,71,0.00,,,0.02,VWS V14.01,2013-07-13 20:25:00,
2013-07-13 16:29:00,84.9,74.8,29.54,SSE,160,0.0,0.0,72,0.00,,,0.02,VWS V14.01,2013-07-13 20:29:00,
2013-07-13 16:34:00,84.7,74.7,29.54,SSE,160,0.0,0.0,72,0.00,,,0.02,VWS V14.01,2013-07-13 20:34:00,
2013-07-13 16:35:00,84.7,74.8,29.54,SSE,160,0.0,0.0,72,0.00,,,0.02,VWS V14.01,2013-07-13 20:35:00,
2013-07-13 16:38:00,84.8,75.0,29.54,SSE,160,0.0,0.0,73,0.00,,,0.02,VWS V14.01,2013-07-13 20:38:00,
2013-07-13 16:40:00,84.8,74.8,29.54,SSE,160,0.0,3.4,72,0.00,,,0.02,VWS V14.01,2013-07-13 20:40:00,
2013-07-13 16:43:00,84.7,74.8,29.53,SSE,160,0.0,0.0,72,0.00,,,0.02,VWS V14.01,2013-07-13 20:43:00,
2013-07-13 16:45:00,84.9,75.3,29.54,SSE,160,0.0,0.0,73,0.00,,,0.02,VWS V14.01,2013-07-13 20:45:00,
2013-07-13 16:48:00,84.7,75.8,29.54,WSW,242,0.0,7.3,75,0.00,,,0.02,VWS V14.01,2013-07-13 20:48:00,
2013-07-13 16:50:00,84.6,75.7,29.54,WNW,297,0.0,4.7,75,0.00,,,0.02,VWS V14.01,2013-07-13 20:50:00,
2013-07-13 16:53:00,84.3,75.3,29.54,WNW,297,0.0,0.0,74,0.00,,,0.02,VWS V14.01,2013-07-13 20:53:00,
2013-07-13 16:55:00,84.1,75.3,29.54,WNW,297,0.0,0.0,75,0.00,,,0.02,VWS V14.01,2013-07-13 20:55:00,
2013-07-13 16:58:00,83.9,75.3,29.54,WNW,297,0.0,0.0,75,0.00,,,0.02,VWS V14.01,2013-07-13 20:58:00,
2013-07-13 17:00:00,83.9,75.1,29.54,WNW,297,0.0,0.0,75,0.00,,,0.02,VWS V14.01,2013-07-13 21:00:00,
2013-07-13 17:03:00,83.7,75.1,29.54,WNW,297,0.0,0.0,75,0.00,,,0.02,VWS V14.01,2013-07-13 21:03:00,
2013-07-13 17:05:00,83.4,74.7,29.54,WNW,297,0.0,0.0,75,0.00,,,0.02,VWS V14.01,2013-07-13 21:05:00,
2013-07-13 17:08:00,83.4,74.9,29.54,WNW,297,0.0,0.0,76,0.00,,,0.02,VWS V14.01,2013-07-13 21:08:00,
2013-07-13 17:10:00,83.3,74.8,29.54,West,281,0.0,3.3,76,0.00,,,0.02,VWS V14.01,2013-07-13 21:10:00,
2013-07-13 17:13:00,83.3,74.8,29.54,West,281,0.0,0.0,76,0.00,,,0.02,VWS V14.01,2013-07-13 21:13:00,
2013-07-13 17:15:00,83.2,74.5,29.54,NW,315,0.0,3.3,75,0.00,,,0.02,VWS V14.01,2013-07-13 21:15:00,
2013-07-13 17:18:00,83.1,74.4,29.54,NW,314,0.0,2.5,75,0.00,,,0.02,VWS V14.01,2013-07-13 21:18:00,
2013-07-13 17:23:00,82.9,73.8,29.53,NW,314,0.0,0.0,74,0.00,,,0.02,VWS V14.01,2013-07-13 21:23:00,
2013-07-13 17:25:00,82.9,73.8,29.53,NW,314,0.0,0.0,74,0.00,,,0.02,VWS V14.01,2013-07-13 21:25:00,
2013-07-13 17:28:00,82.9,74.1,29.53,NW,314,0.0,0.0,75,0.00,,,0.02,VWS V14.01,2013-07-13 21:28:00,
2013-07-13 17:30:00,83.0,74.2,29.53,NW,314,0.0,0.0,75,0.00,,,0.02,VWS V14.01,2013-07-13 21:30:00,
2013-07-13 17:33:00,82.7,73.9,29.53,NW,314,0.0,0.0,75,0.00,,,0.02,VWS V14.01,2013-07-13 21:33:00,
2013-07-13 17:35:00,82.7,73.8,29.53,NW,314,0.0,0.0,75,0.00,,,0.02,VWS V14.01,2013-07-13 21:35:00,
2013-07-13 17:38:00,82.5,73.7,29.53,NW,314,0.0,0.0,75,0.00,,,0.02,VWS V14.01,2013-07-13 21:38:00,
2013-07-13 17:43:00,82.6,74.2,29.54,NW,314,0.0,0.0,76,0.00,,,0.02,VWS V14.01,2013-07-13 21:43:00,
2013-07-13 17:45:00,82.5,73.9,29.54,NW,314,0.0,0.0,75,0.00,,,0.02,VWS V14.01,2013-07-13 21:45:00,
2013-07-13 17:48:00,82.4,74.0,29.54,NW,314,0.0,0.0,76,0.00,,,0.02,VWS V14.01,2013-07-13 21:48:00,
2013-07-13 17:50:00,82.4,73.9,29.54,NW,314,0.0,0.0,76,0.00,,,0.02,VWS V14.01,2013-07-13 21:50:00,
2013-07-13 17:53:00,82.4,74.0,29.54,NW,314,0.0,0.0,76,0.00,,,0.02,VWS V14.01,2013-07-13 21:53:00,
2013-07-13 17:55:00,82.4,74.1,29.54,NW,314,0.0,0.0,76,0.00,,,0.02,VWS V14.01,2013-07-13 21:55:00,
2013-07-13 17:58:00,82.5,74.3,29.54,NW,314,0.0,0.0,76,0.00,,,0.02,VWS V14.01,2013-07-13 21:58:00,
2013-07-13 18:00:00,82.4,74.3,29.54,NW,314,0.0,0.0,77,0.00,,,0.02,VWS V14.01,2013-07-13 22:00:00,
2013-07-13 18:03:00,82.4,74.5,29.54,NW,314,0.0,0.0,77,0.00,,,0.02,VWS V14.01,2013-07-13 22:03:00,
2013-07-13 18:08:00,82.1,74.3,29.54,NW,314,0.0,0.0,77,0.00,,,0.02,VWS V14.01,2013-07-13 22:08:00,
2013-07-13 18:10:00,82.2,74.5,29.54,NW,314,0.0,0.0,78,0.00,,,0.02,VWS V14.01,2013-07-13 22:10:00,
2013-07-13 18:13:00,82.3,74.6,29.54,NW,314,0.0,0.0,78,0.00,,,0.02,VWS V14.01,2013-07-13 22:13:00,
2013-07-13 18:15:00,82.3,74.5,29.54,NW,314,0.0,0.0,77,0.00,,,0.02,VWS V14.01,2013-07-13 22:15:00,
2013-07-13 18:18:00,82.2,74.2,29.54,NW,314,0.0,0.0,77,0.00,,,0.02,VWS V14.01,2013-07-13 22:18:00,
2013-07-13 18:20:00,82.2,74.2,29.54,NW,314,0.0,0.0,77,0.00,,,0.02,VWS V14.01,2013-07-13 22:20:00,
2013-07-13 18:23:00,82.3,74.5,29.54,NW,314,0.0,0.0,77,0.00,,,0.02,VWS V14.01,2013-07-13 22:23:00,
2013-07-13 18:28:00,81.9,74.2,29.54,WNW,285,0.0,0.0,78,0.00,,,0.02,VWS V14.01,2013-07-13 22:28:00,
2013-07-13 18:30:00,81.9,74.3,29.54,WNW,285,0.0,0.0,78,0.00,,,0.02,VWS V14.01,2013-07-13 22:30:00,
2013-07-13 18:33:00,81.8,74.4,29.54,WNW,285,0.0,0.0,78,0.00,,,0.02,VWS V14.01,2013-07-13 22:33:00,
2013-07-13 18:35:00,81.9,74.5,29.54,WNW,285,0.0,0.0,78,0.00,,,0.02,VWS V14.01,2013-07-13 22:35:00,
2013-07-13 18:38:00,81.6,74.1,29.53,WNW,285,0.0,0.0,78,0.00,,,0.02,VWS V14.01,2013-07-13 22:38:00,
2013-07-13 18:40:00,81.5,74.2,29.53,WNW,285,0.0,0.0,78,0.00,,,0.02,VWS V14.01,2013-07-13 22:40:00,
2013-07-13 18:43:00,81.5,74.3,29.53,WNW,285,0.0,0.0,79,0.00,,,0.02,VWS V14.01,2013-07-13 22:43:00,
2013-07-13 18:45:00,81.3,74.1,29.53,WNW,285,0.0,0.0,79,0.00,,,0.02,VWS V14.01,2013-07-13 22:45:00,
2013-07-13 18:48:00,81.5,74.3,29.53,WNW,285,0.0,0.0,79,0.00,,,0.02,VWS V14.01,2013-07-13 22:48:00,
2013-07-13 18:50:00,81.4,74.3,29.53,WNW,285,0.0,0.0,79,0.00,,,0.02,VWS V14.01,2013-07-13 22:50:00,
2013-07-13 18:53:00,81.3,74.4,29.53,WNW,285,0.0,0.0,80,0.00,,,0.02,VWS V14.01,2013-07-13 22:53:00,
2013-07-13 18:55:00,81.4,74.5,29.52,WNW,285,0.0,0.0,80,0.00,,,0.02,VWS V14.01,2013-07-13 22:55:00,
2013-07-13 18:58:00,81.4,74.4,29.52,WNW,285,0.0,0.0,79,0.00,,,0.02,VWS V14.01,2013-07-13 22:58:00,
2013-07-13 19:00:00,81.4,74.4,29.52,WNW,285,0.0,0.0,80,0.00,,,0.02,VWS V14.01,2013-07-13 23:00:00,
2013-07-13 19:03:00,81.4,74.6,29.52,WNW,285,0.0,0.0,80,0.00,,,0.02,VWS V14.01,2013-07-13 23:03:00,
2013-07-13 19:05:00,81.4,74.5,29.52,WNW,285,0.0,0.0,80,0.00,,,0.02,VWS V14.01,2013-07-13 23:05:00,
2013-07-13 19:08:00,81.4,74.4,29.52,WNW,285,0.0,0.0,79,0.00,,,0.02,VWS V14.01,2013-07-13 23:08:00,
2013-07-13 19:10:00,81.4,74.4,29.52,WNW,285,0.0,0.0,79,0.00,,,0.02,VWS V14.01,2013-07-13 23:10:00,
2013-07-13 19:13:00,81.5,74.6,29.52,WNW,285,0.0,0.0,80,0.00,,,0.02,VWS V14.01,2013-07-13 23:13:00,
2013-07-13 19:15:00,81.5,74.8,29.53,WNW,285,0.0,0.0,80,0.00,,,0.02,VWS V14.01,2013-07-13 23:15:00,
2013-07-13 19:18:00,81.5,74.8,29.53,NNW,340,0.0,3.4,80,0.00,,,0.02,VWS V14.01,2013-07-13 23:18:00,
2013-07-13 19:20:00,81.6,74.8,29.52,NNW,340,0.0,0.0,80,0.00,,,0.02,VWS V14.01,2013-07-13 23:20:00,
2013-07-13 19:23:00,81.7,74.9,29.53,NNW,340,0.0,0.0,80,0.00,,,0.02,VWS V14.01,2013-07-13 23:23:00,
2013-07-13 19:25:00,82.0,75.0,29.52,NNW,340,0.0,0.0,79,0.00,,,0.02,VWS V14.01,2013-07-13 23:25:00,
2013-07-13 19:28:00,81.9,74.8,29.52,NNW,340,0.0,0.0,79,0.00,,,0.02,VWS V14.01,2013-07-13 23:28:00,
2013-07-13 19:30:00,81.8,74.9,29.52,NNW,340,0.0,0.0,80,0.00,,,0.02,VWS V14.01,2013-07-13 23:30:00,
2013-07-13 19:33:00,81.7,74.9,29.52,NNW,340,0.0,0.0,80,0.00,,,0.02,VWS V14.01,2013-07-13 23:33:00,
2013-07-13 19:35:00,81.5,74.7,29.53,NNW,340,0.0,0.0,80,0.00,,,0.02,VWS V14.01,2013-07-13 23:35:00,
2013-07-13 19:38:00,81.4,74.4,29.53,NNW,340,0.0,0.0,80,0.00,,,0.02,VWS V14.01,2013-07-13 23:38:00,
2013-07-13 19:43:00,81.3,74.4,29.53,NNW,340,0.0,0.0,80,0.00,,,0.02,VWS V14.01,2013-07-13 23:43:00,
2013-07-13 19:45:00,81.3,74.6,29.53,NNW,340,0.0,0.0,80,0.00,,,0.02,VWS V14.01,2013-07-13 23:45:00,
2013-07-13 19:48:00,81.1,74.3,29.53,NNW,340,0.0,0.0,80,0.00,,,0.02,VWS V14.01,2013-07-13 23:48:00,
2013-07-13 19:50:00,81.0,74.4,29.53,NNW,340,0.0,0.0,80,0.00,,,0.02,VWS V14.01,2013-07-13 23:50:00,
2013-07-13 19:53:00,80.8,74.5,29.53,NNW,340,0.0,0.0,81,0.00,,,0.02,VWS V14.01,2013-07-13 23:53:00,
2013-07-13 19:55:00,80.7,74.4,29.53,NNW,340,0.0,0.0,81,0.00,,,0.02,VWS V14.01,2013-07-13 23:55:00,
2013-07-13 19:58:00,80.6,74.2,29.53,NNW,340,0.0,0.0,81,0.00,,,0.02,VWS V14.01,2013-07-13 23:58:00,
2013-07-13 20:00:00,80.4,74.0,29.53,NNW,340,0.0,0.0,81,0.00,,,0.02,VWS V14.01,2013-07-14 00:00:00,
2013-07-13 20:03:00,80.4,73.9,29.53,NNW,340,0.0,0.0,81,0.00,,,0.02,VWS V14.01,2013-07-14 00:03:00,
2013-07-13 20:08:00,80.5,74.2,29.53,NNW,340,0.0,0.0,81,0.00,,,0.02,VWS V14.01,2013-07-14 00:08:00,
2013-07-13 20:10:00,80.4,74.0,29.53,NNW,340,0.0,0.0,81,0.00,,,0.02,VWS V14.01,2013-07-14 00:10:00,
2013-07-13 20:13:00,80.5,74.1,29.53,NNW,340,0.0,0.0,81,0.00,,,0.02,VWS V14.01,2013-07-14 00:13:00,
2013-07-13 20:15:00,80.3,74.0,29.53,NNW,340,0.0,0.0,81,0.00,,,0.02,VWS V14.01,2013-07-14 00:15:00,
2013-07-13 20:18:00,80.3,74.1,29.53,NNW,340,0.0,0.0,81,0.00,,,0.02,VWS V14.01,2013-07-14 00:18:00,
2013-07-13 20:20:00,80.3,74.0,29.53,NNW,340,0.0,0.0,81,0.00,,,0.02,VWS V14.01,2013-07-14 00:20:00,
2013-07-13 20:23:00,80.3,74.0,29.52,NNW,340,0.0,0.0,81,0.00,,,0.02,VWS V14.01,2013-07-14 00:23:00,
2013-07-13 20:28:00,80.3,74.1,29.52,NNW,340,0.0,0.0,81,0.00,,,0.02,VWS V14.01,2013-07-14 00:28:00,
2013-07-13 20:30:00,80.2,74.0,29.53,NNW,340,0.0,0.0,82,0.00,,,0.02,VWS V14.01,2013-07-14 00:30:00,
2013-07-13 20:33:00,80.2,74.1,29.53,NNW,340,0.0,0.0,82,0.00,,,0.02,VWS V14.01,2013-07-14 00:33:00,
2013-07-13 20:35:00,80.3,74.2,29.53,NNW,340,0.0,0.0,82,0.00,,,0.02,VWS V14.01,2013-07-14 00:35:00,
2013-07-13 20:38:00,80.2,74.1,29.53,NNW,340,0.0,0.0,82,0.00,,,0.02,VWS V14.01,2013-07-14 00:38:00,
2013-07-13 20:43:00,80.2,74.2,29.53,NNW,340,0.0,0.0,82,0.00,,,0.02,VWS V14.01,2013-07-14 00:43:00,
2013-07-13 20:48:00,80.1,74.4,29.53,NNW,340,0.0,0.0,83,0.00,,,0.02,VWS V14.01,2013-07-14 00:48:00,
2013-07-13 20:50:00,80.3,74.6,29.53,NNW,340,0.0,0.0,83,0.00,,,0.02,VWS V14.01,2013-07-14 00:50:00,
2013-07-13 20:53:00,80.2,74.4,29.52,NNW,340,0.0,0.0,82,0.00,,,0.02,VWS V14.01,2013-07-14 00:53:00,
2013-07-13 20:55:00,80.2,74.4,29.53,NNW,340,0.0,0.0,82,0.00,,,0.02,VWS V14.01,2013-07-14 00:55:00,
2013-07-13 20:58:00,80.0,74.2,29.53,NNW,340,0.0,0.0,83,0.00,,,0.02,VWS V14.01,2013-07-14 00:58:00,
2013-07-13 21:03:00,80.1,74.4,29.53,NNW,340,0.0,0.0,83,0.00,,,0.02,VWS V14.01,2013-07-14 01:03:00,
2013-07-13 21:05:00,80.1,74.6,29.53,NNW,340,0.0,0.0,83,0.00,,,0.02,VWS V14.01,2013-07-14 01:05:00,
2013-07-13 21:08:00,80.0,74.4,29.53,NNW,340,0.0,0.0,83,0.00,,,0.02,VWS V14.01,2013-07-14 01:08:00,
2013-07-13 21:13:00,79.9,74.5,29.54,NNW,340,0.0,0.0,84,0.00,,,0.02,VWS V14.01,2013-07-14 01:13:00,
2013-07-13 21:15:00,80.0,74.7,29.53,NNW,340,0.0,0.0,84,0.00,,,0.02,VWS V14.01,2013-07-14 01:15:00,
2013-07-13 21:18:00,79.9,74.6,29.54,NNW,340,0.0,0.0,84,0.00,,,0.02,VWS V14.01,2013-07-14 01:18:00,
2013-07-13 21:20:00,79.9,74.7,29.54,NNW,340,0.0,0.0,84,0.00,,,0.02,VWS V14.01,2013-07-14 01:20:00,
2013-07-13 21:23:00,79.8,74.7,29.54,NNW,340,0.0,0.0,84,0.00,,,0.02,VWS V14.01,2013-07-14 01:23:00,
2013-07-13 21:28:00,79.7,74.8,29.54,NNW,340,0.0,0.0,85,0.00,,,0.02,VWS V14.01,2013-07-14 01:28:00,
2013-07-13 21:33:00,79.4,74.8,29.54,NNW,340,0.0,0.0,86,0.00,,,0.02,VWS V14.01,2013-07-14 01:33:00,
2013-07-13 21:35:00,79.5,75.1,29.55,NNW,340,0.0,0.0,86,0.00,,,0.02,VWS V14.01,2013-07-14 01:35:00,
2013-07-13 21:38:00,79.3,74.8,29.55,NNW,340,0.0,0.0,86,0.00,,,0.02,VWS V14.01,2013-07-14 01:38:00,
2013-07-13 21:40:00,79.3,74.9,29.55,NNW,340,0.0,0.0,86,0.00,,,0.02,VWS V14.01,2013-07-14 01:40:00,
2013-07-13 21:43:00,79.3,74.9,29.55,NNW,340,0.0,0.0,86,0.00,,,0.02,VWS V14.01,2013-07-14 01:43:00,
2013-07-13 21:48:00,79.2,74.7,29.55,NNW,340,0.0,0.0,86,0.00,,,0.02,VWS V14.01,2013-07-14 01:48:00,
2013-07-13 21:53:00,79.0,74.5,29.55,NNW,340,0.0,0.0,86,0.00,,,0.02,VWS V14.01,2013-07-14 01:53:00,
2013-07-13 21:55:00,79.1,74.7,29.55,NNW,340,0.0,0.0,86,0.00,,,0.02,VWS V14.01,2013-07-14 01:55:00,
2013-07-13 21:58:00,79.2,74.8,29.55,NNW,340,0.0,0.0,86,0.00,,,0.02,VWS V14.01,2013-07-14 01:58:00,
2013-07-13 22:03:00,79.1,74.8,29.56,NNW,340,0.0,0.0,87,0.00,,,0.02,VWS V14.01,2013-07-14 02:03:00,
2013-07-13 22:05:00,79.0,74.6,29.55,NNW,340,0.0,0.0,86,0.00,,,0.02,VWS V14.01,2013-07-14 02:05:00,
2013-07-13 22:08:00,79.1,74.8,29.55,NNW,340,0.0,0.0,87,0.00,,,0.02,VWS V14.01,2013-07-14 02:08:00,
2013-07-13 22:13:00,79.1,74.8,29.56,NNW,340,0.0,0.0,87,0.00,,,0.02,VWS V14.01,2013-07-14 02:13:00,
2013-07-13 22:17:00,79.1,74.8,29.56,NNW,340,0.0,0.0,87,0.00,,,0.02,VWS V14.01,2013-07-14 02:17:00,
2013-07-13 22:18:00,79.1,74.8,29.56,NNW,340,0.0,0.0,87,0.00,,,0.02,VWS V14.01,2013-07-14 02:18:00,
2013-07-13 22:20:00,79.0,74.7,29.56,NNW,340,0.0,0.0,87,0.00,,,0.02,VWS V14.01,2013-07-14 02:20:00,
2013-07-13 22:22:00,79.1,74.9,29.56,NNW,340,0.0,0.0,87,0.00,,,0.02,VWS V14.01,2013-07-14 02:22:00,
2013-07-13 22:27:00,79.0,74.8,29.55,NNW,340,0.0,0.0,87,0.00,,,0.02,VWS V14.01,2013-07-14 02:27:00,
2013-07-13 22:32:00,79.0,74.8,29.55,NNW,340,0.0,0.0,87,0.00,,,0.02,VWS V14.01,2013-07-14 02:32:00,
2013-07-13 22:35:00,78.9,74.8,29.55,NNW,340,0.0,0.0,87,0.00,,,0.02,VWS V14.01,2013-07-14 02:35:00,
2013-07-13 22:37:00,78.9,74.8,29.55,NNW,340,0.0,0.0,87,0.00,,,0.02,VWS V14.01,2013-07-14 02:37:00,
2013-07-13 22:45:00,78.8,74.7,29.56,NNW,340,0.0,0.0,87,0.00,,,0.02,VWS V14.01,2013-07-14 02:45:00,
2013-07-13 22:50:00,78.8,74.8,29.56,NNW,340,0.0,0.0,88,0.00,,,0.02,VWS V14.01,2013-07-14 02:50:00,
2013-07-13 22:55:00,78.9,74.8,29.56,NNW,340,0.0,0.0,87,0.00,,,0.02,VWS V14.01,2013-07-14 02:55:00,
2013-07-13 23:27:00,78.3,73.6,29.56,NNW,340,0.0,0.0,86,0.00,,,0.02,VWS V14.01,2013-07-14 03:27:00,
2013-07-13 23:32:00,78.1,73.4,29.56,NNW,340,0.0,0.0,86,0.00,,,0.02,VWS V14.01,2013-07-14 03:32:00,
2013-07-13 23:37:00,78.2,73.6,29.56,NNW,340,0.0,0.0,86,0.00,,,0.02,VWS V14.01,2013-07-14 03:37:00,
2013-07-13 23:42:00,78.1,73.5,29.56,NNW,340,0.0,0.0,86,0.00,,,0.02,VWS V14.01,2013-07-14 03:42:00,
2013-07-13 23:47:00,78.2,73.6,29.57,NNW,340,0.0,0.0,86,0.00,,,0.02,VWS V14.01,2013-07-14 03:47:00,
2013-07-13 23:52:00,78.1,73.6,29.57,NNW,340,0.0,0.0,86,0.00,,,0.02,VWS V14.01,2013-07-14 03:52:00,
2013-07-13 23:57:00,78.1,73.7,29.57,NNW,340,0.0,0.0,86,0.00,,,0.02,VWS V14.01,2013-07-14 03:57:00,